YRARS LRBS-LRBS

Flight info

Callsign YRARS
Flight time N/A
Altitude 2000
Route VISUAL
Aircraft SF50/L-V/N

Departure

Time 2026-05-07 18:58
Airport Bucharest Băneasa Aurel Vlaicu International Airport (LRBS)

Arrival

Time N/A
Airport Bucharest Băneasa Aurel Vlaicu International Airport (LRBS)
Time Latitude Longitude Altitude Speed Heading
2026-05-07 18:30 44.49759 26.08756 290 ft 0 kts 189°
2026-05-07 18:52 44.49753 26.08755 290 ft 2 kts 189°
2026-05-07 18:52 44.49735 26.08750 290 ft 0 kts 226°
2026-05-07 18:53 44.49722 26.08722 290 ft 5 kts 252°
2026-05-07 18:53 44.49708 26.08653 290 ft 7 kts 253°
2026-05-07 18:53 44.49694 26.08593 290 ft 5 kts 254°
2026-05-07 18:53 44.49680 26.08525 290 ft 7 kts 253°
2026-05-07 18:54 44.49675 26.08478 290 ft 0 kts 277°
2026-05-07 18:54 44.49678 26.08452 291 ft 3 kts 289°
2026-05-07 18:54 44.49715 26.08445 291 ft 6 kts
2026-05-07 18:54 44.49769 26.08443 291 ft 4 kts 290°
2026-05-07 18:55 44.49775 26.08415 291 ft 0 kts 284°
2026-05-07 18:56 44.49777 26.08402 292 ft 4 kts 278°
2026-05-07 18:56 44.49785 26.08329 293 ft 10 kts 280°
2026-05-07 18:56 44.49799 26.08216 293 ft 11 kts 279°
2026-05-07 18:57 44.49836 26.08164 293 ft 8 kts 358°
2026-05-07 18:57 44.49899 26.08194 293 ft 11 kts 51°
2026-05-07 18:57 44.49919 26.08274 293 ft 8 kts 73°
2026-05-07 18:57 44.49995 26.08644 290 ft 78 kts 73°
2026-05-07 18:58 44.50201 26.09628 414 ft 120 kts 73°
2026-05-07 18:58 44.50471 26.10934 731 ft 157 kts 74°
2026-05-07 18:58 44.50785 26.12507 1254 ft 179 kts 75°
2026-05-07 18:58 44.51135 26.14323 1500 ft 208 kts 75°
2026-05-07 18:59 44.51509 26.16336 1565 ft 213 kts 75°
2026-05-07 18:59 44.51870 26.18350 1527 ft 214 kts 76°
2026-05-07 18:59 44.52220 26.20369 1505 ft 214 kts 76°
2026-05-07 18:59 44.52558 26.22395 1478 ft 214 kts 77°
2026-05-07 19:00 44.52876 26.24376 1589 ft 206 kts 77°
2026-05-07 19:00 44.53182 26.26359 1468 ft 213 kts 78°
2026-05-07 19:00 44.53486 26.28398 1421 ft 214 kts 78°
2026-05-07 19:00 44.53778 26.30431 1424 ft 212 kts 78°
2026-05-07 19:01 44.54056 26.32449 1459 ft 213 kts 79°
2026-05-07 19:01 44.54346 26.34638 1514 ft 243 kts 79°
2026-05-07 19:01 44.54637 26.36917 1536 ft 228 kts 79°
2026-05-07 19:01 44.54715 26.38946 1621 ft 198 kts 101°
2026-05-07 19:02 44.54095 26.40608 1511 ft 194 kts 136°
2026-05-07 19:02 44.52909 26.41455 1454 ft 195 kts 169°
2026-05-07 19:02 44.51568 26.41274 1390 ft 196 kts 201°
2026-05-07 19:02 44.50482 26.40168 1385 ft 195 kts 230°
2026-05-07 19:03 44.49916 26.38475 1499 ft 201 kts 256°
2026-05-07 19:03 44.49641 26.36485 1527 ft 207 kts 259°
2026-05-07 19:03 44.49373 26.34496 1498 ft 208 kts 259°
2026-05-07 19:03 44.49268 26.32496 1482 ft 208 kts 285°
2026-05-07 19:04 44.49715 26.30584 1499 ft 207 kts 293°
2026-05-07 19:04 44.50229 26.28843 1585 ft 177 kts 292°
2026-05-07 19:04 44.50687 26.27279 1456 ft 165 kts 292°
2026-05-07 19:04 44.51114 26.25825 1484 ft 158 kts 292°
2026-05-07 19:05 44.51530 26.24405 1496 ft 159 kts 292°
2026-05-07 19:05 44.51901 26.22925 1501 ft 163 kts 283°
2026-05-07 19:05 44.52187 26.21366 1501 ft 167 kts 284°
2026-05-07 19:05 44.52335 26.19748 1503 ft 168 kts 271°
2026-05-07 19:06 44.52082 26.18170 1498 ft 166 kts 249°
2026-05-07 19:06 44.51197 26.15217 1498 ft 164 kts 251°
2026-05-07 19:06 44.50842 26.13757 1487 ft 151 kts 251°
2026-05-07 19:07 44.50506 26.12374 1489 ft 146 kts 251°
2026-05-07 19:07 44.50183 26.11041 1493 ft 143 kts 251°
2026-05-07 19:07 44.49865 26.09733 1496 ft 142 kts 251°
2026-05-07 19:07 44.49539 26.08392 1505 ft 161 kts 251°
2026-05-07 19:08 44.49121 26.06673 1538 ft 211 kts 251°
2026-05-07 19:08 44.48652 26.04743 1509 ft 208 kts 251°
2026-05-07 19:08 44.48187 26.02829 1497 ft 207 kts 251°
2026-05-07 19:08 44.47727 26.00935 1496 ft 205 kts 251°
2026-05-07 19:09 44.47194 25.99094 1493 ft 204 kts 239°
2026-05-07 19:09 44.46509 25.97352 1501 ft 207 kts 241°
2026-05-07 19:09 44.45804 25.95557 1501 ft 213 kts 241°
2026-05-07 19:09 44.45082 25.93722 1501 ft 218 kts 241°
2026-05-07 19:10 44.44348 25.91857 1502 ft 218 kts 241°
2026-05-07 19:10 44.43672 25.90137 1479 ft 191 kts 241°
2026-05-07 19:10 44.43216 25.88415 1496 ft 190 kts 266°
2026-05-07 19:10 44.43260 25.86593 1505 ft 188 kts 283°
2026-05-07 19:11 44.43699 25.84882 1501 ft 188 kts 299°
2026-05-07 19:11 44.44502 25.83459 1487 ft 188 kts 326°
2026-05-07 19:11 44.45698 25.82700 1501 ft 197 kts 343°
2026-05-07 19:11 44.47179 25.82456 1517 ft 237 kts 14°
2026-05-07 19:12 44.48584 25.83741 1503 ft 249 kts 52°
2026-05-07 19:12 44.49371 25.85908 1504 ft 252 kts 67°
2026-05-07 19:12 44.49758 25.88260 1492 ft 246 kts 82°
2026-05-07 19:12 44.49420 25.90539 1511 ft 241 kts 113°
2026-05-07 19:13 44.48737 25.92670 1498 ft 239 kts 115°
2026-05-07 19:13 44.48035 25.94763 1497 ft 238 kts 115°
2026-05-07 19:13 44.47451 25.96909 1482 ft 237 kts 98°
2026-05-07 19:13 44.47345 25.99178 1482 ft 234 kts 78°
2026-05-07 19:14 44.47893 26.01057 1365 ft 184 kts 57°
2026-05-07 19:14 44.48501 26.02384 1203 ft 140 kts 58°
2026-05-07 19:14 44.48931 26.03478 1042 ft 115 kts 69°
2026-05-07 19:14 44.49164 26.04454 882 ft 98 kts 74°
2026-05-07 19:15 44.49351 26.05369 704 ft 99 kts 73°
2026-05-07 19:15 44.49529 26.06314 579 ft 101 kts 73°
2026-05-07 19:15 44.49711 26.07180 456 ft 85 kts 74°
2026-05-07 19:15 44.49898 26.07981 368 ft 100 kts 72°
2026-05-07 19:16 44.50099 26.09079 325 ft 116 kts 79°
2026-05-07 19:16 44.50312 26.10011 326 ft 97 kts 67°
2026-05-07 19:16 44.50678 26.10949 624 ft 127 kts 59°
2026-05-07 19:16 44.51174 26.12089 1110 ft 151 kts 60°
2026-05-07 19:17 44.51584 26.13486 1621 ft 170 kts 70°
2026-05-07 19:17 44.52007 26.15231 1865 ft 205 kts 72°
2026-05-07 19:17 44.52454 26.17321 1895 ft 242 kts 73°
2026-05-07 19:17 44.52958 26.19644 1908 ft 248 kts 75°
2026-05-07 19:18 44.52997 26.22000 1939 ft 243 kts 104°